Time,TemperatureF,DewpointF,PressureIn,WindDirection,WindDirectionDegrees,WindSpeedMPH,WindSpeedGustMPH,Humidity,HourlyPrecipIn,Conditions,Clouds,dailyrainin,SoftwareType,DateUTC
2013-02-27 10:05:00,36.0,34.7,29.52,West,270,6.8,-999.0,95,-99.99,,,0.01,Acu-Link.com,2013-02-27 15:05:00,
2013-02-27 10:21:00,36.3,35.0,29.51,West,270,6.3,-999.0,95,-99.99,,,0.07,Acu-Link.com,2013-02-27 15:21:00,
2013-02-27 10:37:00,37.0,34.1,29.53,West,270,9.4,-999.0,89,-99.99,,,0.11,Acu-Link.com,2013-02-27 15:37:00,
2013-02-27 10:53:00,36.3,33.7,29.53,West,270,10.4,-999.0,90,-99.99,,,0.15,Acu-Link.com,2013-02-27 15:53:00,
2013-02-27 11:08:00,35.4,33.0,29.53,West,270,8.3,-999.0,91,-99.99,,,0.17,Acu-Link.com,2013-02-27 16:08:00,
2013-02-27 11:23:00,37.2,32.5,29.53,West,270,14.0,-999.0,83,-99.99,,,0.20,Acu-Link.com,2013-02-27 16:23:00,
2013-02-27 11:38:00,36.5,32.4,29.53,WSW,247,7.3,-999.0,85,-99.99,,,0.23,Acu-Link.com,2013-02-27 16:38:00,
2013-02-27 11:55:00,37.9,32.6,29.53,West,270,14.5,-999.0,81,-99.99,,,0.25,Acu-Link.com,2013-02-27 16:55:00,
2013-02-27 12:11:00,36.7,32.3,29.53,West,270,6.8,-999.0,84,-99.99,,,0.28,Acu-Link.com,2013-02-27 17:11:00,
2013-02-27 12:29:00,37.6,32.6,29.53,West,270,10.4,-999.0,82,-99.99,,,0.31,Acu-Link.com,2013-02-27 17:29:00,
2013-02-27 12:44:00,37.2,32.2,29.53,West,270,9.4,-999.0,82,-99.99,,,0.33,Acu-Link.com,2013-02-27 17:44:00,
2013-02-27 12:59:00,37.0,32.6,29.52,West,270,5.8,-999.0,84,-99.99,,,0.36,Acu-Link.com,2013-02-27 17:59:00,
2013-02-27 13:15:00,36.9,32.8,29.53,West,270,6.8,-999.0,85,-99.99,,,0.37,Acu-Link.com,2013-02-27 18:15:00,
2013-02-27 13:30:00,36.9,32.8,29.53,West,270,7.8,-999.0,85,-99.99,,,0.38,Acu-Link.com,2013-02-27 18:30:00,
2013-02-27 13:45:00,36.5,33.3,29.53,SW,225,3.7,-999.0,88,-99.99,,,0.39,Acu-Link.com,2013-02-27 18:45:00,
2013-02-27 14:01:00,36.3,33.7,29.54,West,270,4.2,-999.0,90,-99.99,,,0.41,Acu-Link.com,2013-02-27 19:01:00,
2013-02-27 14:16:00,37.0,34.1,29.54,WNW,292,13.0,-999.0,89,-99.99,,,0.42,Acu-Link.com,2013-02-27 19:16:00,
2013-02-27 14:31:00,36.0,33.6,29.54,WSW,247,4.7,-999.0,91,-99.99,,,0.43,Acu-Link.com,2013-02-27 19:31:00,
2013-02-27 14:47:00,36.5,33.6,29.53,West,270,5.3,-999.0,89,-99.99,,,0.44,Acu-Link.com,2013-02-27 19:47:00,
2013-02-27 15:03:00,36.9,33.7,29.54,WNW,292,5.8,-999.0,88,-99.99,,,0.45,Acu-Link.com,2013-02-27 20:03:00,
2013-02-27 15:18:00,36.5,33.3,29.54,WNW,292,2.7,-999.0,88,-99.99,,,0.46,Acu-Link.com,2013-02-27 20:18:00,
2013-02-27 15:38:00,36.9,33.4,29.54,West,270,3.7,-999.0,87,-99.99,,,0.47,Acu-Link.com,2013-02-27 20:38:00,
2013-02-27 15:54:00,35.4,34.1,29.54,West,270,4.7,-999.0,95,-99.99,,,0.48,Acu-Link.com,2013-02-27 20:54:00,
2013-02-27 17:46:00,33.1,32.8,29.56,ENE,67,1.1,-999.0,99,-99.99,,,0.51,Acu-Link.com,2013-02-27 22:46:00,
2013-02-27 18:58:00,33.1,32.8,29.58,ENE,67,4.7,-999.0,99,-99.99,,,0.51,Acu-Link.com,2013-02-27 23:58:00,
2013-02-27 19:14:00,33.1,32.8,29.58,West,270,2.7,-999.0,99,-99.99,,,0.51,Acu-Link.com,2013-02-28 00:14:00,
2013-02-27 19:30:00,32.9,32.7,29.58,WSW,247,2.2,-999.0,99,-99.99,,,0.51,Acu-Link.com,2013-02-28 00:30:00,
2013-02-27 19:45:00,32.7,32.5,29.57,West,270,3.2,-999.0,99,-99.99,,,0.51,Acu-Link.com,2013-02-28 00:45:00,
2013-02-27 20:00:00,32.7,32.5,29.57,West,270,2.2,-999.0,99,-99.99,,,0.51,Acu-Link.com,2013-02-28 01:00:00,
2013-02-27 20:15:00,32.7,32.5,29.57,West,270,2.7,-999.0,99,-99.99,,,0.51,Acu-Link.com,2013-02-28 01:15:00,
2013-02-27 20:33:00,32.5,32.3,29.57,WSW,247,2.2,-999.0,99,-99.99,,,0.51,Acu-Link.com,2013-02-28 01:33:00,
2013-02-27 20:49:00,32.5,32.3,29.57,WSW,247,2.7,-999.0,99,-99.99,,,0.51,Acu-Link.com,2013-02-28 01:49:00,
2013-02-27 21:04:00,32.7,32.5,29.56,West,270,5.8,-999.0,99,-99.99,,,0.51,Acu-Link.com,2013-02-28 02:04:00,
2013-02-27 21:19:00,32.7,32.5,29.57,SW,225,4.7,-999.0,99,-99.99,,,0.51,Acu-Link.com,2013-02-28 02:19:00,
2013-02-27 21:34:00,32.5,32.3,29.56,WNW,292,4.7,-999.0,99,-99.99,,,0.52,Acu-Link.com,2013-02-28 02:34:00,
2013-02-27 21:50:00,32.2,32.0,29.56,West,270,1.7,-999.0,99,-99.99,,,0.52,Acu-Link.com,2013-02-28 02:50:00,
2013-02-27 22:05:00,32.0,31.8,29.55,West,270,4.2,-999.0,99,-99.99,,,0.52,Acu-Link.com,2013-02-28 03:05:00,
2013-02-27 22:20:00,32.0,31.8,29.55,West,270,2.2,-999.0,99,-99.99,,,0.52,Acu-Link.com,2013-02-28 03:20:00,
2013-02-27 22:36:00,31.8,31.6,29.55,WSW,247,4.2,-999.0,99,-99.99,,,0.52,Acu-Link.com,2013-02-28 03:36:00,
2013-02-27 22:51:00,31.6,31.4,29.54,WNW,292,3.2,-999.0,99,-99.99,,,0.52,Acu-Link.com,2013-02-28 03:51:00,
2013-02-27 23:06:00,31.5,31.3,29.53,WNW,292,1.7,-999.0,99,-99.99,,,0.52,Acu-Link.com,2013-02-28 04:06:00,
2013-02-27 23:22:00,31.5,31.3,29.54,WSW,247,2.7,-999.0,99,-99.99,,,0.52,Acu-Link.com,2013-02-28 04:22:00,
2013-02-27 23:37:00,31.3,31.1,29.54,West,270,3.7,-999.0,99,-99.99,,,0.52,Acu-Link.com,2013-02-28 04:37:00,
2013-02-27 23:52:00,31.1,30.9,29.53,WNW,292,3.7,-999.0,99,-99.99,,,0.52,Acu-Link.com,2013-02-28 04:52:00,